LFBPLFBZ

Guest
Details From LFBP - Pau Pyrenees
To LFBZ - Biarritz-Anglet-Bayonne
Flight Number -
Tags generated
Created
Modified
Stats Distance 48 nm / 90 km
Max Altitude 100 ft / 30 m
Waypoints 3
Social Downloads 5
Likes 0
Share VATSIM

Download

Looking for another format? Having issues loading an existing format? Contact us
Advertisement - Login to hide

Notes

Basic altitude profile: - Ascent Rate: 2500ft/min - Ascent Speed: 120kts - Cruise Altitude: 35000ft - Cruise Speed: 100kts - Descent Rate: 500ft/min - Descent Speed: 110kts Options: - Use NATs: yes - Use PACOTS: yes - Use low airways: yes - Use high airways: no

Route

LFBP BTZ LFBZ

ID Type Via Altitude (ft/m) Position (lat/lon) Dist (leg/tot) Name
O LFBP APT - 0 / 0 43.38108 / -0.42075 - / 0 nm Pau Pyrenees
BTZ VOR - 100 / 30 43.46664 / -1.51028 47 / 47 nm BIARRITZ BAYONNE ANGLET VOR-DM
O LFBZ APT - 0 / 0 43.46843 / -1.52332 0 / 48 nm Biarritz-Anglet-Bayonne

Altitude Profile

Advertisement - Login to hide

LFBP

Details ICAO LFBP (PUF)
Name Pau Pyrenees
Region France
Timezone Europe/Paris (UTC+2.0)
Stats Elevation 616 ft / 188 m (AMSL)
Location 43.381100° -0.420750°
Runways 1
Magnetic Variation 0.199° E

METAR

LFBP 240200Z AUTO 05002KT 5000 2100 BR VV/// 09/09 Q1030 TEMPO 0800 FG

Decode

TAF

TAF AMD LFBP 240201Z 2402/2424 VRB03KT 4000 BR BKN005 TEMPO 2402/2410 2000 BR OVC002 PROB40 TEMPO 2402/2410 0800 FG VV/// BECMG 2410/2412 CAVOK

Decode

Departure Runways

ID Width Length Bearing (true/mag) Surface Threshold Overrun Markings Lighting
13 148 ft / 45 m 8,191 ft / 2,497 m 125.89° / 125.69° ASPHALT 0 ft / 0 m 0 ft / 0 m APP CENTERLINE EDGE THRESHOLD REIL-OMNI
31 148 ft / 45 m 8,191 ft / 2,497 m 305.90° / 305.71° ASPHALT 0 ft / 0 m 0 ft / 0 m PREC-APP CENTERLINE EDGE THRESHOLD RAIL TDZ REIL-OMNI

LFBZ

Details ICAO LFBZ (BIQ)
Name Biarritz-Anglet-Bayonne
Region France
Timezone Europe/Paris (UTC+2.0)
Stats Elevation 245 ft / 75 m (AMSL)
Location 43.468400° -1.523330°
Runways 1
Magnetic Variation 0.119° W

METAR

LFBZ 240200Z AUTO 19003KT 9000 FEW019 09/09 Q1030 TEMPO 0700 FG OVC005

Decode

TAF

TAF LFBZ 232300Z 2400/2424 VRB03KT 6000 NSC TEMPO 2400/2409 1000 BCFG PROB40 TEMPO 2400/2409 22005KT 0700 FG OVC005 BECMG 2410/2412 28005KT CAVOK

Decode

Destination Runways

ID Width Length Bearing (true/mag) Surface Threshold Overrun Markings Lighting
09 148 ft / 45 m 7,389 ft / 2,252 m 89.16° / 89.28° ASPHALT 686 ft / 209 m 0 ft / 0 m APP CENTERLINE EDGE THRESHOLD
27 148 ft / 45 m 7,389 ft / 2,252 m 269.18° / 269.30° ASPHALT 0 ft / 0 m 0 ft / 0 m PREC-APP CENTERLINE EDGE THRESHOLD

Approach Navaids

Runway Type Ident Frequency Range Bearing (true/mag) Slope Elevation
27 LOC-ILS BZ 111.35 MHz 18 nm / 33 km 269.04° / 269.16 ° - 234 ft / 71 m (AMSL)
27 GS BZ 111.35 MHz 10 nm / 19 km 269.27° / 269.39 ° 3.00° 234 ft / 71 m (AMSL)
27 DME BZ 111.35 MHz 18 nm / 33 km - - 223 ft / 68 m (AMSL)

Popular Alternatives